Flag for Germany Weather past 2 weeks in Kirchheim unter Teck, Baden-Württemberg, Germany

Now
52 °F

Fog.


Feels Like: 52 °F
Forecast: 53 / 72 °F
Wind: 1 mph from North

Location: Stuttgart-Echterdingen

Current Time: Aug 28, 2014 at 6:11:12 AM

Latest Report: Aug 28, 2014 at 5:20 AM


Visibility: 0 mi

Pressure: 30.07 "Hg

Humidity: 100%

Dew point: 52 °F

Location of Kirchheim unter TeckLocation

Historic Weather in Kirchheim unter Teck — Graph

°F

Kirchheim unter Teck temperature yesterday

Maximum temperature yesterday: 66 °F (at 6:20 PM)
Minimum temperature yesterday: 55 °F (at 11:50 PM)
Average temperature yesterday: 60 °F

Past Weeks' High & Low Weather Summary

 TemperatureHumidityPressure
High70 °F (Aug 17, 1:50 PM)100% (Aug 13, 4:20 AM)30.18 "Hg (Aug 13, 4:20 AM)
Low45 °F (Aug 25, 5:20 AM)38% (Aug 22, 4:20 PM)29.68 "Hg (Aug 13, 1:20 PM)
Average58 °F75%29.98 "Hg
* Reported Aug 13 4:20 AM — Aug 28 4:50 AM, Kirchheim unter Teck, Weather by CustomWeather, © 2014

Note: Actual official high and low records may vary slightly from our data, if they occured in-between our weather recording intervals... More about our weather records

Advertising

Kirchheim unter Teck weather history for previous 24 hours

 ConditionsComfort  
Time TempWeatherWind HumidityBarometerVisibility
4:50 AM
Aug 28
52 °FFog.2 mph100%30.07 "Hg0 mi
4:20 AM52 °FSleet. Overcast.1 mph100%30.07 "HgN/A
3:50 AM54 °FFog.1 mph94%30.07 "HgN/A
3:20 AM54 °FClear.1 mph94%30.07 "Hg10 mi
2:50 AM54 °FClear.1 mph94%30.07 "Hg10 mi
2:20 AM54 °FClear.1 mph94%30.07 "Hg10 mi
1:50 AM55 °FClear.1 mph88%30.07 "Hg10 mi
1:20 AM55 °FClear.1 mph94%30.07 "Hg10 mi
12:50 AM55 °FClear.2 mph94%30.07 "Hg10 mi
12:20 AM55 °FClear.2 mph94%30.07 "Hg10 mi
11:50 PM
Aug 27
55 °FClear.1 mph94%30.07 "Hg10 mi
11:20 PM57 °FClear.5 mph88%30.07 "Hg10 mi
10:50 PM57 °FClear.3 mph88%30.07 "Hg10 mi
10:20 PM59 °FClear.2 mph88%30.07 "Hg10 mi
9:50 PM59 °FClear.2 mph88%30.07 "Hg10 mi
9:20 PM61 °FPassing clouds.1 mph83%30.07 "HgN/A
8:50 PM61 °FScattered clouds.3 mph77%30.07 "HgN/A
7:50 PM64 °FScattered clouds.1 mph64%30.04 "HgN/A
7:20 PM64 °FPassing clouds.2 mph68%30.04 "HgN/A
6:20 PM66 °FPassing clouds.1 mph60%30.04 "HgN/A
4:20 PM64 °FScattered clouds.3 mph60%30.04 "HgN/A
3:50 PM64 °FScattered clouds.2 mph64%30.04 "HgN/A
3:20 PM64 °FScattered clouds.5 mph68%30.04 "HgN/A
2:50 PM63 °FBroken clouds.2 mph73%30.04 "HgN/A
2:20 PM63 °FBroken clouds.5 mph77%30.04 "HgN/A
1:50 PM61 °FBroken clouds.5 mph77%30.04 "HgN/A
1:20 PM61 °FBroken clouds.3 mph77%30.04 "HgN/A
12:20 PM61 °FPartly sunny.3 mph77%30.01 "HgN/A
11:50 AM59 °FPartly sunny.5 mph88%30.01 "HgN/A
11:20 AM59 °FPartly sunny.6 mph88%30.01 "HgN/A
10:50 AM59 °FBroken clouds.5 mph82%29.98 "HgN/A
10:20 AM57 °FBroken clouds.7 mph94%29.98 "HgN/A
9:50 AM57 °FBroken clouds.7 mph88%29.98 "HgN/A
9:20 AM57 °FSprinkles. Partly sunny.9 mph94%29.95 "Hg5 mi
8:50 AM59 °FBroken clouds.5 mph94%29.95 "HgN/A
8:20 AM59 °FSprinkles. Broken clouds.6 mph94%29.95 "HgN/A
7:50 AM59 °FBroken clouds.3 mph88%29.92 "HgN/A
7:20 AM57 °FPartly cloudy.7 mph94%29.89 "HgN/A
6:50 AM57 °FSprinkles. Partly cloudy.7 mph94%29.89 "HgN/A
6:20 AM59 °FSprinkles. Partly cloudy.3 mph88%29.89 "HgN/A
Weather by CustomWeather, © 2014

See weather overviewHow to use our weather pages